This demonstration page uses our WeatherBlox Daily Observations layout. Learn more.

Left ArrowRight Arrow

39.01783, -85.05884

Hourly Observations for August 5, 2021

Temp ( °F °C ) Dew Point ( °F °C ) Humidity (%) Winds ( mph kmh ) Pressure ( in mb ) Visibility ( mi km ) Precip ( " mm )
12:52 am 00:52 Mostly Clear 68 20 55 12.8 63 63 N N/A 30.09 1019 10 16 N/A
1:52 am 01:52 Mostly Clear 70 21.1 57 13.9 64 64 N N/A 30.09 1019 10 16 N/A
2:52 am 02:52 Mostly Clear 65 18.3 56 13.3 73 73 NNW 3 6 30.07 1018 10 16 N/A
3:52 am 03:52 Mostly Clear 67 19.4 58 14.4 73 73 NNE 3 6 30.07 1018 10 16 N/A
4:52 am 04:52 Clear 68 20 55 12.8 63 63 N N/A 30.08 1019 10 16 N/A
5:52 am 05:52 Mostly Clear 63 17.2 56 13.3 78 78 N N/A 30.09 1019 10 16 N/A
6:52 am 06:52 Mostly Sunny 65 18.3 57 13.9 76 76 NNE 3 6 30.10 1019 8 13 N/A
7:52 am 07:52 Mostly Sunny 67 19.4 59 15 76 76 N N/A 30.11 1020 7 11 N/A
8:52 am 08:52 Sunny 71 21.7 60 15.6 68 68 E 3 6 30.12 1020 10 16 N/A
9:52 am 09:52 Sunny 75 23.9 61 16.1 62 62 ESE 3 6 30.12 1020 10 16 N/A
10:52 am 10:52 Mostly Sunny 79 26.1 61 16.1 54 54 VRB 6 9 30.12 1020 10 16 N/A
11:52 am 11:52 Partly Cloudy 81 27.2 59 15 47 47 N N/A 30.12 1020 10 16 N/A
12:52 pm 12:52 Mostly Cloudy 80 26.7 59 15 49 49 N N/A 30.11 1020 10 16 N/A
1:52 pm 13:52 Mostly Cloudy 82 27.8 58 14.4 44 44 N N/A 30.09 1019 10 16 N/A
2:52 pm 14:52 Mostly Cloudy 84 28.9 58 14.4 41 41 N N/A 30.07 1018 10 16 N/A
3:52 pm 15:52 Partly Cloudy 84 28.9 58 14.4 41 41 undefined N/A 30.06 1018 10 16 N/A
4:52 pm 16:52 Partly Cloudy 84 28.9 58 14.4 41 41 SSW 6 9 30.05 1018 10 16 N/A
5:52 pm 17:52 Mostly Sunny 85 29.4 58 14.4 40 40 SW 7 11 30.05 1018 10 16 N/A
6:52 pm 18:52 Mostly Sunny 83 28.3 59 15 44 44 SSW 6 9 30.05 1018 10 16 N/A
7:52 pm 19:52 Mostly Sunny 80 26.7 59 15 49 49 SW 6 9 30.04 1017 10 16 N/A
8:52 pm 20:52 Mostly Clear 79 26.1 58 14.4 49 49 SSW 3 6 30.06 1018 10 16 N/A
9:52 pm 21:52 Partly Cloudy 74 23.3 60 15.6 62 62 SSW 5 7 30.07 1018 10 16 N/A
10:52 pm 22:52 Clear 72 22.2 60 15.6 66 66 SSW 7 11 30.07 1018 10 16 N/A
11:52 pm 23:52 Mostly Clear 72 22.2 61 16.1 68 68 S 6 9 30.07 1018 10 16 N/A

Powered by AerisWeather